Home   Weather   Voronezh   Past weeks

Flag for Russia Past Weather in Voronezh, Russia — Yesterday and Last 2 Weeks

Now
63 °F

Clear.


Feels Like: 63 °F
Forecast: 48 / 68 °F
Wind: 8 mph from Southeast

Location: Voronez

Current Time: Apr 28, 2017 at 11:15:51 pm

Latest Report: Apr 28, 2017 at 10:00 pm


Visibility: 10 mi

Pressure: 30.12 "Hg

Humidity: 42%

Dew Point: 39 °F

Location of VoronezhLocation

Past Weather in Voronezh — Graph

°F

Voronezh Temperature Yesterday

Maximum temperature yesterday: 70 °F (at 2:30 pm)
Minimum temperature yesterday: 46 °F (at 5:30 am)
Average temperature yesterday: 59 °F

High & Low Weather Summary for the Past Weeks

 TemperatureHumidityPressure
High73 °F (Apr 28, 3:00 pm)100% (Apr 18, 7:30 pm)30.21 "Hg (Apr 18, 7:30 pm)
Low23 °F (Apr 20, 4:30 am)15% (Apr 27, 4:30 pm)29.50 "Hg (Apr 14, 1:00 pm)
Average45 °F58%29.90 "Hg
* Reported Apr 13 10:00 pm — Apr 28 10:00 pm, Voronezh, Weather by CustomWeather, © 2017

Note: Actual official high and low records may vary slightly from our data, if they occured in-between our weather recording intervals... More about our weather records

Advertising

Voronezh Weather History for the Previous 24 Hours

Scroll right to see more
 ConditionsComfort  
Time TempWeatherWind HumidityBarometerVisibility
10:00 pm
Fri, Apr 28
63 °FClear.8 mph42%30.12 "Hg10 mi
9:30 pm63 °FClear.8 mph42%30.12 "Hg10 mi
9:00 pm59 °FClear.8 mph45%30.12 "Hg10 mi
8:30 pm63 °FClear.6 mph39%30.09 "Hg10 mi
8:00 pm63 °FClear.6 mph37%30.09 "Hg10 mi
7:30 pm64 °FSunny.6 mph34%30.09 "Hg10 mi
7:00 pm70 °FSunny.6 mph27%30.09 "Hg10 mi
6:30 pm70 °FSunny.6 mph25%30.09 "Hg10 mi
6:00 pm72 °FSunny.8 mph22%30.09 "Hg10 mi
5:30 pm73 °FSunny.13 mph19%30.09 "Hg10 mi
5:00 pm73 °FSunny.13 mph16%30.12 "Hg10 mi
4:30 pm73 °FSunny.13 mph16%30.12 "Hg10 mi
4:00 pm73 °FPassing clouds.10 mph17%30.12 "HgN/A
3:00 pm73 °FPassing clouds.10 mph22%30.12 "HgN/A
2:30 pm72 °FSunny.10 mph25%30.15 "Hg10 mi
2:00 pm72 °FSunny.13 mph22%30.15 "Hg10 mi
1:30 pm72 °FSunny.10 mph25%30.15 "Hg10 mi
1:00 pm72 °FPassing clouds.10 mph23%30.15 "HgN/A
12:30 pm70 °FSunny.13 mph21%30.15 "Hg10 mi
12:00 pm70 °FSunny.13 mph25%30.18 "Hg10 mi
11:30 am70 °FSunny.13 mph29%30.18 "Hg10 mi
10:30 am66 °FSunny.10 mph32%30.18 "Hg10 mi
10:00 am64 °FPassing clouds.8 mph34%30.18 "HgN/A
9:30 am63 °FSunny.10 mph39%30.18 "Hg10 mi
9:00 am61 °FSunny.8 mph42%30.18 "Hg10 mi
8:30 am59 °FSunny.8 mph45%30.18 "Hg10 mi
8:00 am59 °FPassing clouds.6 mph45%30.18 "HgN/A
7:30 am57 °FSunny.8 mph44%30.18 "Hg10 mi
7:00 am54 °FSunny.6 mph51%30.18 "Hg10 mi
6:30 am52 °FSunny.8 mph54%30.18 "Hg10 mi
6:00 am52 °FSunny.8 mph54%30.18 "Hg10 mi
5:30 am48 °FSunny.8 mph62%30.15 "Hg10 mi
5:00 am52 °FClear.8 mph54%30.15 "Hg10 mi
4:30 am54 °FClear.8 mph47%30.15 "Hg10 mi
4:00 am55 °FClear.10 mph41%30.15 "Hg10 mi
3:00 am57 °FClear.13 mph39%30.15 "Hg10 mi
2:30 am57 °FClear.13 mph36%30.15 "Hg10 mi
2:00 am57 °FClear.13 mph36%30.15 "Hg10 mi
1:30 am59 °FClear.15 mph34%30.15 "Hg10 mi
1:00 am59 °FClear.13 mph31%30.15 "Hg10 mi
12:30 am59 °FClear.15 mph31%30.15 "Hg10 mi
12:00 am61 °FClear.15 mph31%30.15 "Hg6 mi
11:30 pm
Thu, Apr 27
61 °FClear.13 mph29%30.15 "Hg6 mi
11:00 pm61 °FClear.13 mph29%30.15 "Hg10 mi
Weather by CustomWeather, © 2017

See weather overviewHow to use our weather pages